WJA684 CYZF-CYYC

Flight info

Callsign WJA684
Flight time N/A
Altitude 39000
Route YZF DCT 60N115W 55N115W DCT MATIR Q925 ADVOX ADVOX9
Aircraft B738/M-SDE2E3FGHIRWXY/LB1

Departure

Time 2026-05-07 20:19
Airport Yellowknife International Airport (CYZF)

Arrival

Time N/A
Airport Calgary International Airport (CYYC)
Time Latitude Longitude Altitude Speed Heading
2026-05-07 19:46 62.47083 -114.43873 678 ft 0 kts 85°
2026-05-07 20:06 62.47082 -114.43879 680 ft 3 kts 85°
2026-05-07 20:06 62.47081 -114.43936 680 ft 4 kts 95°
2026-05-07 20:06 62.47087 -114.43989 682 ft 4 kts 128°
2026-05-07 20:06 62.47100 -114.44009 681 ft 0 kts 175°
2026-05-07 20:12 62.47094 -114.44008 684 ft 2 kts 175°
2026-05-07 20:12 62.47063 -114.44002 682 ft 7 kts 175°
2026-05-07 20:12 62.47002 -114.43999 680 ft 11 kts 190°
2026-05-07 20:12 62.46942 -114.44130 680 ft 14 kts 238°
2026-05-07 20:13 62.46879 -114.44300 682 ft 14 kts 211°
2026-05-07 20:13 62.46785 -114.44315 680 ft 14 kts 177°
2026-05-07 20:13 62.46692 -114.44304 681 ft 13 kts 176°
2026-05-07 20:13 62.46603 -114.44291 680 ft 13 kts 176°
2026-05-07 20:14 62.46516 -114.44276 680 ft 12 kts 175°
2026-05-07 20:14 62.46432 -114.44260 680 ft 12 kts 175°
2026-05-07 20:14 62.46347 -114.44246 681 ft 13 kts 176°
2026-05-07 20:14 62.46259 -114.44234 681 ft 13 kts 176°
2026-05-07 20:15 62.46173 -114.44221 678 ft 12 kts 176°
2026-05-07 20:15 62.46083 -114.44206 683 ft 14 kts 175°
2026-05-07 20:15 62.45991 -114.44190 683 ft 13 kts 175°
2026-05-07 20:15 62.45889 -114.44173 682 ft 16 kts 175°
2026-05-07 20:16 62.45771 -114.44153 681 ft 17 kts 176°
2026-05-07 20:16 62.45648 -114.44136 682 ft 19 kts 176°
2026-05-07 20:16 62.45512 -114.44114 680 ft 19 kts 175°
2026-05-07 20:16 62.45383 -114.44085 680 ft 15 kts 161°
2026-05-07 20:17 62.45313 -114.44008 679 ft 6 kts 197°
2026-05-07 20:17 62.45304 -114.44078 682 ft 6 kts 303°
2026-05-07 20:17 62.45344 -114.44091 680 ft 6 kts 355°
2026-05-07 20:17 62.45347 -114.44091 678 ft 0 kts 355°
2026-05-07 20:18 62.45351 -114.44092 679 ft 1 kts 355°
2026-05-07 20:18 62.45363 -114.44094 679 ft 5 kts 355°
2026-05-07 20:18 62.45695 -114.44144 682 ft 89 kts 356°
2026-05-07 20:18 62.46549 -114.44273 680 ft 155 kts 359°
2026-05-07 20:19 62.47732 -114.44417 1085 ft 178 kts 357°
2026-05-07 20:19 62.49049 -114.44676 1449 ft 205 kts 356°
2026-05-07 20:19 62.50578 -114.45026 1406 ft 238 kts 355°
2026-05-07 20:19 62.52355 -114.45482 1480 ft 270 kts 354°
2026-05-07 20:20 62.54289 -114.46016 1990 ft 291 kts 354°
2026-05-07 20:20 62.56397 -114.46591 1954 ft 329 kts 354°
2026-05-07 20:20 62.58797 -114.47200 1985 ft 360 kts 354°
2026-05-07 20:20 62.61306 -114.47806 2792 ft 362 kts 355°
2026-05-07 20:21 62.63687 -114.48358 4177 ft 318 kts 355°
2026-05-07 20:21 62.65809 -114.48810 4401 ft 303 kts 355°
2026-05-07 20:21 62.67988 -114.49233 3092 ft 335 kts 355°
2026-05-07 20:21 62.70306 -114.50761 3416 ft 353 kts 329°
2026-05-07 20:22 62.71973 -114.54495 4939 ft 341 kts 300°
2026-05-07 20:22 62.72638 -114.59322 6438 ft 331 kts 273°
2026-05-07 20:22 62.72209 -114.64165 7773 ft 325 kts 245°
2026-05-07 20:22 62.70857 -114.68000 9081 ft 318 kts 221°
2026-05-07 20:23 62.68991 -114.70478 10337 ft 312 kts 202°
2026-05-07 20:23 62.66861 -114.71570 11078 ft 324 kts 187°
2026-05-07 20:23 62.64558 -114.71973 11588 ft 338 kts 184°
2026-05-07 20:23 62.62183 -114.72204 12337 ft 345 kts 183°
2026-05-07 20:24 62.59768 -114.72397 13204 ft 348 kts 183°
2026-05-07 20:24 62.57361 -114.72596 13999 ft 352 kts 183°
2026-05-07 20:24 62.54907 -114.72819 14774 ft 355 kts 183°
2026-05-07 20:24 62.52433 -114.73063 15571 ft 357 kts 184°
2026-05-07 20:25 62.49937 -114.73324 16343 ft 360 kts 184°
2026-05-07 20:25 62.47423 -114.73598 17112 ft 363 kts 184°
2026-05-07 20:25 62.44890 -114.73881 17909 ft 365 kts 184°
2026-05-07 20:25 62.42338 -114.74170 18648 ft 368 kts 183°
2026-05-07 20:26 62.39770 -114.74463 19329 ft 370 kts 183°
2026-05-07 20:26 62.37186 -114.74758 19971 ft 374 kts 184°
2026-05-07 20:26 62.34610 -114.75053 20612 ft 377 kts 184°
2026-05-07 20:26 62.31973 -114.75355 21262 ft 380 kts 183°
2026-05-07 20:27 62.29319 -114.75658 21873 ft 383 kts 184°
2026-05-07 20:27 62.26649 -114.75963 22521 ft 385 kts 184°
2026-05-07 20:27 62.23962 -114.76269 23185 ft 387 kts 183°
2026-05-07 20:27 62.21254 -114.76576 23762 ft 390 kts 183°
2026-05-07 20:28 62.18537 -114.76885 24255 ft 393 kts 184°
2026-05-07 20:28 62.15838 -114.77191 24739 ft 395 kts 184°
2026-05-07 20:28 62.13072 -114.77503 25213 ft 398 kts 184°
2026-05-07 20:28 62.10289 -114.77817 25650 ft 402 kts 184°
2026-05-07 20:29 62.07481 -114.78134 26103 ft 405 kts 184°
2026-05-07 20:29 62.04663 -114.78451 26576 ft 407 kts 184°
2026-05-07 20:29 62.01819 -114.78771 27032 ft 410 kts 184°
2026-05-07 20:29 61.98960 -114.79091 27469 ft 413 kts 184°
2026-05-07 20:30 61.96079 -114.79413 27890 ft 415 kts 184°
2026-05-07 20:30 61.94162 -114.79627 28175 ft 417 kts 184°
2026-05-07 20:30 61.91255 -114.79951 28590 ft 420 kts 184°
2026-05-07 20:30 61.87362 -114.80384 29127 ft 423 kts 184°
2026-05-07 20:31 61.85371 -114.80605 29403 ft 425 kts 184°
2026-05-07 20:31 61.82443 -114.80930 29772 ft 427 kts 184°
2026-05-07 20:31 61.79463 -114.81259 30110 ft 430 kts 185°
2026-05-07 20:31 61.76447 -114.81592 30317 ft 435 kts 185°
2026-05-07 20:32 61.73416 -114.81927 30554 ft 438 kts 185°
2026-05-07 20:32 61.70356 -114.82264 30857 ft 440 kts 185°
2026-05-07 20:32 61.67287 -114.82601 31148 ft 443 kts 185°
2026-05-07 20:32 61.64203 -114.82939 31417 ft 445 kts 185°
2026-05-07 20:33 61.61103 -114.83277 31708 ft 447 kts 185°
2026-05-07 20:33 61.57991 -114.83616 32036 ft 447 kts 185°
2026-05-07 20:33 61.54922 -114.83949 32427 ft 446 kts 185°
2026-05-07 20:33 61.51818 -114.84285 32818 ft 445 kts 185°
2026-05-07 20:34 61.48720 -114.84621 33158 ft 446 kts 185°
2026-05-07 20:34 61.45617 -114.84956 33458 ft 446 kts 186°
2026-05-07 20:34 61.42503 -114.85293 33752 ft 448 kts 186°
2026-05-07 20:34 61.39387 -114.85629 34062 ft 448 kts 186°
2026-05-07 20:35 61.36276 -114.85964 34354 ft 447 kts 186°
2026-05-07 20:35 61.33203 -114.86294 34583 ft 448 kts 186°
2026-05-07 20:35 61.30076 -114.86629 34802 ft 450 kts 186°
2026-05-07 20:35 61.26945 -114.86965 35049 ft 450 kts 186°
2026-05-07 20:36 61.23811 -114.87299 35297 ft 451 kts 186°
2026-05-07 20:36 61.20673 -114.87633 35542 ft 451 kts 186°
2026-05-07 20:36 61.17540 -114.87966 35761 ft 452 kts 186°
2026-05-07 20:36 61.14388 -114.88301 35992 ft 453 kts 186°
2026-05-07 20:37 61.11230 -114.88635 36196 ft 454 kts 186°
2026-05-07 20:37 61.08071 -114.88969 36358 ft 456 kts 186°
2026-05-07 20:37 61.04897 -114.89304 36579 ft 456 kts 186°
2026-05-07 20:37 61.01726 -114.89637 36842 ft 456 kts 186°
2026-05-07 20:38 60.98594 -114.89966 37058 ft 456 kts 186°
2026-05-07 20:38 60.95426 -114.90297 37320 ft 456 kts 186°
2026-05-07 20:38 60.92251 -114.90629 37519 ft 456 kts 186°
2026-05-07 20:38 60.89069 -114.90962 37699 ft 457 kts 186°
2026-05-07 20:39 60.85893 -114.91293 37903 ft 458 kts 186°
2026-05-07 20:39 60.82706 -114.91624 38128 ft 458 kts 186°
2026-05-07 20:39 60.79506 -114.91956 38310 ft 459 kts 186°
2026-05-07 20:39 60.76338 -114.92285 38420 ft 461 kts 186°
2026-05-07 20:40 60.73128 -114.92617 38586 ft 462 kts 186°
2026-05-07 20:40 60.69922 -114.92948 38771 ft 461 kts 186°
2026-05-07 20:40 60.66719 -114.93276 38911 ft 461 kts 186°
2026-05-07 20:41 60.60272 -114.93939 38904 ft 464 kts 186°
2026-05-07 20:41 60.53836 -114.94594 38890 ft 460 kts 186°
2026-05-07 20:42 60.47457 -114.95243 38884 ft 457 kts 186°
2026-05-07 20:42 60.41116 -114.95886 38889 ft 455 kts 186°
2026-05-07 20:43 60.34798 -114.96526 38880 ft 456 kts 186°
2026-05-07 20:43 60.28452 -114.97168 38899 ft 462 kts 186°
2026-05-07 20:44 60.21968 -114.97820 38895 ft 468 kts 186°
2026-05-07 20:44 60.15435 -114.98470 38879 ft 471 kts 186°
2026-05-07 20:45 60.08902 -114.99119 38873 ft 473 kts 186°
2026-05-07 20:45 60.02323 -114.99770 38870 ft 473 kts 186°
2026-05-07 20:46 59.95767 -115.00229 38866 ft 473 kts 183°
2026-05-07 20:46 59.89181 -115.00170 38864 ft 471 kts 182°
2026-05-07 20:47 59.82632 -115.00051 38842 ft 469 kts 182°
2026-05-07 20:47 59.76164 -114.99998 38848 ft 466 kts 183°
2026-05-07 20:48 59.69690 -114.99990 38839 ft 464 kts 184°
2026-05-07 20:48 59.63236 -114.99993 38842 ft 462 kts 184°
2026-05-07 20:49 59.56843 -114.99997 38842 ft 461 kts 184°
2026-05-07 20:49 59.50417 -114.99999 38837 ft 461 kts 184°
2026-05-07 20:50 59.43980 -115.00000 38840 ft 462 kts 184°
2026-05-07 20:50 59.37546 -115.00001 38842 ft 464 kts 184°
2026-05-07 20:51 59.31076 -115.00001 38838 ft 466 kts 184°
2026-05-07 20:51 59.24573 -115.00001 38835 ft 468 kts 184°
2026-05-07 20:52 59.18043 -115.00002 38831 ft 469 kts 184°
2026-05-07 20:52 59.11543 -115.00001 38828 ft 471 kts 184°
2026-05-07 20:53 59.04969 -115.00001 38815 ft 472 kts 184°
2026-05-07 20:53 58.98402 -115.00000 38823 ft 471 kts 184°
2026-05-07 20:54 58.91890 -114.99999 38820 ft 470 kts 184°
2026-05-07 20:54 58.85351 -114.99998 38819 ft 468 kts 184°
2026-05-07 20:55 58.78838 -114.99998 38826 ft 466 kts 184°
2026-05-07 20:55 58.72388 -114.99998 38825 ft 465 kts 184°
2026-05-07 20:56 58.65903 -114.99998 38822 ft 464 kts 184°
2026-05-07 20:56 58.59474 -114.99998 38826 ft 463 kts 184°
2026-05-07 20:57 58.53027 -114.99999 38832 ft 463 kts 184°
2026-05-07 20:57 58.46565 -114.99999 38834 ft 463 kts 184°
2026-05-07 20:58 58.40152 -115.00000 38836 ft 463 kts 184°
2026-05-07 20:58 58.33692 -115.00000 38835 ft 464 kts 184°
2026-05-07 20:59 58.27218 -115.00001 38837 ft 465 kts 184°